Weather reports worldwide

Advertisment
London/Heathrow Intl, United Kingdom (3772): temperature & dewpoint: 17.01.2019 02:00:00 - 23.01.2019 02:00:00 (GMT)London/Heathrow Intl, United Kingdom (3772): wind speed: 17.01.2019 02:00:00 - 23.01.2019 02:00:00 (GMT)London/Heathrow Intl, United Kingdom (3772): wind direction: 17.01.2019 02:00:00 - 23.01.2019 02:00:00 (GMT)London/Heathrow Intl, United Kingdom (3772): reduced air pressure: 17.01.2019 02:00:00 - 23.01.2019 02:00:00 (GMT)London/Heathrow Intl, United Kingdom (3772): visibility: 17.01.2019 02:00:00 - 23.01.2019 02:00:00 (GMT)London/Heathrow Intl, United Kingdom (3772): sunshine duration: 17.01.2019 02:00:00 - 23.01.2019 02:00:00 (GMT)London/Heathrow Intl, United Kingdom (3772): precipitation: 17.01.2019 02:00:00 - 23.01.2019 02:00:00 (GMT)
Date & Time tt [°C] td [°C] ff [km/h] ff [kn] dd ppp [hPa] vv [km] sd [min] rr [mm]
23.01.2019 02:00:00 0,6 0,0 8 4 NNW 997,6 10 0 0,0
23.01.2019 01:00:00 0,1 -0,3 5 3 - 997,5 7 0 0,0
23.01.2019 00:00:00 0,3 0,1 9 5 WNW 997,4 5 - 0,0
22.01.2019 23:00:00 0,2 -0,2 9 5 WNW 997,5 2,1 0 0,0
22.01.2019 22:00:00 0,9 0,5 9 5 WNW 997,6 7 0 0,4
22.01.2019 21:00:00 0,9 0,5 4 2 NW 997,8 5 0 0,4
22.01.2019 20:00:00 1,0 0,7 8 4 WNW 998,1 9 0 0,2
22.01.2019 19:00:00 0,6 0,2 2 1 NE 998,3 7 0 0,2
22.01.2019 18:00:00 0,6 0,0 2 1 NNW 998,9 1,0 0 0,8
22.01.2019 17:00:00 1,0 0,4 4 2 - 999,1 4,5 0 0,8
22.01.2019 16:00:00 1,2 0,2 0 0 N 1000,0 1,4 0 1,2
22.01.2019 15:00:00 4,6 -0,8 15 8 SW 1000,0 10 0 0,0
22.01.2019 14:00:00 5,0 0,3 13 7 WSW 1000,8 10 24 0,0
22.01.2019 13:00:00 6,1 0,7 16 9 W 1001,7 30 60 0,0
22.01.2019 12:00:00 5,2 1,6 18 10 W 1002,9 30 60 0,0
22.01.2019 11:00:00 4,1 1,3 16 9 W 1003,5 10 60 0,0
22.01.2019 10:00:00 3,2 1,0 15 8 WSW 1003,7 10 36 0,0
22.01.2019 09:00:00 1,6 0,0 13 7 W 1003,9 10 0 0,0
22.01.2019 08:00:00 1,4 0,0 13 7 W 1003,9 10 0 0,0
22.01.2019 07:00:00 1,9 0,7 11 6 W 1003,9 16 0 0,0
22.01.2019 06:00:00 1,8 0,7 15 8 WSW 1004,0 10 0 0,0
22.01.2019 05:00:00 3,4 2,0 13 7 W 1004,0 10 0 0,0
22.01.2019 04:00:00 4,8 2,9 18 10 W 1004,1 10 0 0,0
22.01.2019 03:00:00 5,2 4,1 21 11 WSW 1004,6 10 0 1,6
22.01.2019 02:00:00 5,9 5,2 18 10 SSW 1005,6 6 0 2,4
22.01.2019 01:00:00 5,8 4,9 16 9 S 1007,1 7 0 1,4
22.01.2019 00:00:00 5,7 3,7 21 11 S 1008,8 10 - 0,0
21.01.2019 23:00:00 5,2 3,1 22 12 S 1010,6 10 0 0,0
21.01.2019 22:00:00 5,2 2,6 22 12 S 1012,3 10 0 0,0
21.01.2019 21:00:00 4,5 1,8 18 10 SSW 1013,9 10 0 0,0
21.01.2019 20:00:00 3,7 1,3 15 8 S 1015,1 7 0 0,0
21.01.2019 19:00:00 3,8 1,0 11 6 S 1016,6 8 0 0,0
21.01.2019 18:00:00 4,2 0,1 13 7 SW 1018,0 10 0 0,0
21.01.2019 17:00:00 4,5 -0,3 21 11 SW 1019,1 10 0 0,0
21.01.2019 16:00:00 4,7 -0,6 18 10 WSW 1019,5 10 0 0,0
21.01.2019 15:00:00 5,2 -0,3 16 9 SW 1020,3 10 0 0,0
21.01.2019 14:00:00 5,3 -0,2 11 6 WSW 1021,2 10 18 0,0
21.01.2019 13:00:00 4,5 1,8 8 4 SW 1022,3 5 0 0,0
21.01.2019 12:00:00 3,5 1,4 5 3 S 1023,2 5 0 0,0
21.01.2019 11:00:00 2,7 1,0 8 4 SW 1024,5 4,6 0 0,0
21.01.2019 10:00:00 2,4 0,8 9 5 SW 1025,0 5 0 0,0
21.01.2019 09:00:00 1,2 -0,4 2 1 - 1024,8 6 0 0,0
21.01.2019 08:00:00 0,2 -0,9 4 2 WSW 1024,8 6 0 0,0
21.01.2019 07:00:00 -0,5 -1,4 8 4 S 1024,8 4,5 0 0,0
21.01.2019 06:00:00 -1,4 -2,0 8 4 SSE 1024,7 4,0 0 0,0
21.01.2019 05:00:00 -1,6 -2,1 5 3 - 1024,7 3,8 0 0,0
21.01.2019 04:00:00 -1,8 -2,6 4 2 S 1024,6 4,1 0 0,0
21.01.2019 03:00:00 -2,0 -2,7 2 1 ESE 1024,7 4,2 0 0,0
21.01.2019 02:00:00 -1,9 -2,5 2 1 NW 1025,1 4,2 0 0,0
21.01.2019 01:00:00 -1,8 -2,6 2 1 W 1024,7 3,9 0 0,0
21.01.2019 00:00:00 -1,4 -2,8 2 1 N 1024,6 6 - 0,0
20.01.2019 23:00:00 0,2 -1,4 4 2 NNE 1024,3 7 0 0,0
20.01.2019 22:00:00 0,1 -1,8 5 3 N 1024,0 6 0 0,0
20.01.2019 21:00:00 0,1 -1,9 5 3 NNW 1023,5 7 0 0,0
20.01.2019 20:00:00 1,1 -1,5 2 1 NE 1022,9 9 0 0,0
20.01.2019 19:00:00 1,6 -1,8 4 2 N 1022,4 10 0 0,0
20.01.2019 18:00:00 2,3 -1,9 5 3 NE 1021,6 10 0 0,0
20.01.2019 17:00:00 3,3 -1,9 5 3 - 1021,0 10 0 0,0
20.01.2019 16:00:00 4,9 -2,0 8 4 N 1020,0 21 36 0,0
20.01.2019 15:00:00 5,4 -2,9 9 5 N 1019,1 10 60 0,0
20.01.2019 14:00:00 5,6 -1,4 5 3 - 1018,7 10 54 0,0
20.01.2019 13:00:00 5,1 -0,9 8 4 NE 1018,7 10 60 0,0
20.01.2019 12:00:00 4,3 -0,6 8 4 NNE 1018,6 10 54 0,0
20.01.2019 11:00:00 3,3 -0,1 4 2 - 1018,3 10 60 0,0
20.01.2019 10:00:00 1,8 -0,6 5 3 - 1017,6 9 12 0,0
20.01.2019 09:00:00 1,6 -0,7 5 3 N 1016,7 9 0 0,0
20.01.2019 08:00:00 1,7 -0,9 4 2 NE 1015,7 10 0 0,0
20.01.2019 07:00:00 1,4 -0,6 4 2 NE 1014,9 12 0 0,0
20.01.2019 06:00:00 0,7 -0,4 4 2 - 1014,2 8 0 0,0
20.01.2019 05:00:00 -1,0 -1,9 8 4 E 1013,7 7 0 0,0
20.01.2019 04:00:00 -1,1 -2,0 4 2 NE 1013,3 8 0 0,0
20.01.2019 03:00:00 -0,4 -1,4 4 2 N 1013,0 9 0 0,0
20.01.2019 02:00:00 0,4 -1,2 5 3 NE 1012,6 10 0 0,0
20.01.2019 01:00:00 1,2 -0,7 5 3 NE 1012,0 10 0 0,0
20.01.2019 00:00:00 2,4 0,2 5 3 NE 1011,7 10 - 0,0
19.01.2019 23:00:00 2,4 0,2 5 3 E 1011,3 10 0 0,0
19.01.2019 22:00:00 3,8 0,8 11 6 ESE 1010,8 10 0 0,0
19.01.2019 21:00:00 4,2 1,5 11 6 ESE 1010,3 10 0 0,0
19.01.2019 20:00:00 4,2 2,0 15 8 ESE 1010,1 14 0 0,0
19.01.2019 19:00:00 4,6 2,6 11 6 E 1009,6 10 0 0,0
19.01.2019 18:00:00 4,6 3,0 16 9 ESE 1009,2 6 0 0,0
19.01.2019 17:00:00 5,0 3,5 13 7 ESE 1008,8 8 0 0,0
19.01.2019 16:00:00 5,0 3,9 15 8 ESE 1008,5 12 0 0,0
19.01.2019 15:00:00 5,1 4,0 13 7 ESE 1008,3 4,4 0 0,0
19.01.2019 14:00:00 5,4 3,4 16 9 ESE 1008,3 11 0 0,0
19.01.2019 13:00:00 5,4 3,1 18 10 SE 1008,6 16 0 0,0
19.01.2019 12:00:00 5,1 3,0 18 10 ESE 1009,0 10 0 0,0
19.01.2019 11:00:00 4,5 2,5 21 11 ESE 1009,5 10 0 0,0
19.01.2019 10:00:00 4,2 2,5 18 10 ESE 1009,6 13 0 0,0
19.01.2019 09:00:00 3,6 2,0 21 11 ESE 1009,6 10 0 0,0
19.01.2019 08:00:00 3,5 1,2 16 9 SE 1009,4 13 0 0,0
19.01.2019 07:00:00 3,5 0,9 16 9 ESE 1009,3 10 0 0,0
19.01.2019 06:00:00 3,5 0,5 16 9 SE 1009,5 10 0 0,0
19.01.2019 05:00:00 3,5 0,2 18 10 SE 1009,8 10 0 0,0
19.01.2019 04:00:00 3,3 0,3 15 8 SE 1010,4 10 0 0,0
19.01.2019 03:00:00 3,3 -0,2 16 9 SE 1010,9 25 0 0,0
19.01.2019 02:00:00 2,3 -0,8 11 6 ESE 1011,3 10 0 0,0
19.01.2019 01:00:00 2,1 -1,0 13 7 SE 1011,7 24 0 0,0
19.01.2019 00:00:00 2,4 -0,9 15 8 SE 1012,4 10 - 0,0
18.01.2019 23:00:00 2,2 -0,8 16 9 SE 1012,4 23 0 0,0
18.01.2019 22:00:00 2,7 -0,9 15 8 SE 1012,8 10 0 0,0
18.01.2019 21:00:00 2,7 -0,9 13 7 SE 1013,2 10 0 0,0
18.01.2019 20:00:00 2,9 -1,2 16 9 SE 1013,2 26 0 0,0
18.01.2019 19:00:00 4,0 -1,0 16 9 SE 1013,5 10 0 0,0
18.01.2019 18:00:00 4,5 -0,5 18 10 SE 1013,5 10 0 0,0
18.01.2019 17:00:00 4,9 -0,7 18 10 SSE 1014,0 10 0 0,0
18.01.2019 16:00:00 5,8 -1,0 18 10 S 1014,6 10 12 0,0
18.01.2019 15:00:00 7,0 -0,7 21 11 S 1014,8 10 18 0,0
18.01.2019 14:00:00 6,6 -1,2 22 12 S 1015,2 35 0 0,0
18.01.2019 13:00:00 6,4 0,6 16 9 S 1015,7 10 12 0,0
18.01.2019 12:00:00 5,5 -0,1 13 7 S 1016,7 10 0 0,0
18.01.2019 11:00:00 3,6 -0,8 13 7 SE 1017,4 19 6 0,0
18.01.2019 10:00:00 2,2 -1,8 11 6 SE 1017,7 10 0 0,0
18.01.2019 09:00:00 0,6 -2,7 11 6 SE 1017,9 22 0 0,0
18.01.2019 08:00:00 0,5 -2,9 8 4 S 1018,0 10 0 0,0
18.01.2019 07:00:00 -0,1 -2,5 4 2 - 1018,1 10 0 0,0
18.01.2019 06:00:00 -0,8 -2,7 5 3 S 1018,2 16 0 0,0
18.01.2019 05:00:00 -0,9 -2,4 5 3 - 1018,6 10 0 0,0
18.01.2019 04:00:00 -1,2 -2,5 4 2 SE 1019,0 10 0 0,0
18.01.2019 03:00:00 -0,9 -2,6 4 2 - 1019,3 10 0 0,0
18.01.2019 02:00:00 -1,1 -2,7 2 1 SSW 1019,5 10 0 0,0
18.01.2019 01:00:00 -0,9 -3,6 5 3 S 1019,5 10 0 0,0
18.01.2019 00:00:00 0,5 -2,8 9 5 W 1019,4 10 - 0,0
17.01.2019 23:00:00 0,3 -3,0 8 4 W 1019,2 10 0 0,0
17.01.2019 22:00:00 1,2 -3,3 5 3 WNW 1018,9 10 0 0,0
17.01.2019 21:00:00 1,7 -3,3 11 6 NW 1018,7 26 0 0,0
17.01.2019 20:00:00 0,9 -3,5 11 6 W 1018,6 10 0 0,0
17.01.2019 19:00:00 2,4 -3,4 5 3 - 1017,8 10 0 0,0
17.01.2019 18:00:00 3,0 -3,6 9 5 WNW 1017,4 10 0 0,0
17.01.2019 17:00:00 3,5 -3,6 11 6 WNW 1016,6 10 0 0,0
17.01.2019 16:00:00 4,3 -3,8 13 7 NW 1015,8 10 36 0,0
17.01.2019 15:00:00 5,0 -3,7 16 9 NW 1014,7 10 60 0,0
17.01.2019 14:00:00 5,0 -3,8 18 10 NW 1013,9 10 54 0,0
17.01.2019 13:00:00 4,5 -3,2 18 10 NW 1013,5 10 60 0,0
17.01.2019 12:00:00 3,7 -2,6 16 9 NW 1013,1 25 60 0,0
17.01.2019 11:00:00 3,2 -1,9 16 9 NW 1012,3 10 60 0,0
17.01.2019 10:00:00 2,3 -1,3 16 9 NW 1011,4 10 30 0,0
17.01.2019 09:00:00 2,1 -0,2 15 8 NNW 1010,0 10 0 0,2
17.01.2019 08:00:00 3,7 2,1 18 10 WNW 1007,9 16 0 0,0
17.01.2019 07:00:00 2,9 1,5 13 7 W 1006,6 30 0 0,0
17.01.2019 06:00:00 3,6 2,3 15 8 WNW 1005,7 10 0 0,0
17.01.2019 05:00:00 4,0 2,7 13 7 WNW 1004,5 10 0 0,0
17.01.2019 04:00:00 4,4 3,5 11 6 WNW 1003,9 10 0 0,0
17.01.2019 03:00:00 4,4 3,7 11 6 W 1003,1 10 0 0,2
17.01.2019 02:00:00 3,8 3,3 5 3 W 1002,7 8 0 0,0

tt = temperature
td = dewpoint
ff = wind speed
dd = wind direction
ppp = reduced air pressure
vv = visibility
sd = sunshine duration
rr = precipitation

Next stations